Regional Weather Roundup
Issued by NWS

Home | Current Version | Previous Version | Graphics & Text | Print | Product List | Glossary On
Versions: 1 2 3 4 5 6 7 8 9 10 11 12 13 14 15 16 17 18 19 20 21 22 23 24 25 26 27 28 29 30 31 32 33 34 35 36 37 38 39 40 41 42 43 44 45 46 47 48 49 50
000
ASUS43 KTOP 300408
RWRKS

WEATHER ROUNDUP FOR KANSAS
NATIONAL WEATHER SERVICE GOODLAND KS
1100 PM CDT MON JUN 29 2015

NOTE:  "FAIR" INDICATES FEW OR NO CLOUDS BELOW 12,000 FEET WITH NO
SIGNIFICANT WEATHER AND/OR OBSTRUCTIONS TO VISIBILITY.

KSZ001>006-013>018-027>032-041>047-300500-
NORTHWEST KANSAS

CITY           SKY/WX    TMP DP  RH WIND       PRES   REMARKS
GOODLAND       CLEAR     74  54  49 SW9       30.10R
HAYS           PTCLDY    81  54  39 N5        30.01R
HILL CITY      CLEAR     75  53  46 CALM      30.01S
RUSSELL        CLEAR     74  57  55 S9        29.99R
$$

KSZ061>065-074>080-084>089-300500-
SOUTHWEST KANSAS

CITY           SKY/WX    TMP DP  RH WIND       PRES   REMARKS
DODGE CITY     CLEAR     75  56  51 CALM      30.05R
ELKHART          N/A     72  55  55 S7          N/A
GARDEN CITY    CLEAR     75  60  59 CALM      30.06R
GREAT BEND     CLEAR     73  59  60 SE6       30.01R
LIBERAL        CLEAR     72  59  64 S6          N/A
PRATT          CLEAR    N/A N/A N/A W5        30.03R
$$

KSZ066>073-081>083-090>101-300500-
SOUTHEAST KANSAS

CITY           SKY/WX    TMP DP  RH WIND       PRES   REMARKS
CHANUTE        CLEAR     70  65  84 CALM      29.96R
COFFEYVILLE    CLEAR     72  66  81 S3        29.96R
HUTCHINSON     CLEAR     74  60  61 CALM      29.99R
MEDICINE LODGE   N/A     79  59  50 E6        29.99R
NEWTON         CLEAR     75  55  50 S6        30.01R
PARSONS        CLEAR     69  67  93 CALM      29.97R
WICHITA INTL   PTCLDY    75  61  61 S5        29.98R
WICHITA JABRA  CLEAR     73  59  61 S6        29.98R
WICHITA MCCONL CLEAR     74  62  64 S5        29.98R
WINFIELD       CLEAR     73  62  68 SE5       29.99R
$$

KSZ007>012-019>026-033>040-048>060-102>105-300500-
NORTHEAST KANSAS

CITY           SKY/WX    TMP DP  RH WIND       PRES   REMARKS
CONCORDIA      CLEAR     73  60  63 S3        29.97R
EMPORIA        PTCLDY    70  62  76 S6        29.96R
LAWRENCE       CLEAR     69  66  90 CALM      29.93R
MANHATTAN      CLEAR     69  64  84 CALM      29.95R
MARYSVILLE     CLEAR     68  64  88 CALM      29.96R
OLATHE IND     CLEAR     75  65  70 W3        29.94R
OLATHE EXE     CLEAR     73  65  75 CALM      29.93R
SALINA         CLEAR     78  58  49 CALM      29.97R
TOPEKA BILLARD CLEAR     72  69  90 CALM      29.93R
TOPEKA FORBES  CLEAR     72  65  78 S5        29.94R
$$


USA.gov is the U.S. government's official web portal to all federal, state and local government web resources and services.